Regional Weather Roundup
Issued by NWS

Home | Current Version | Previous Version | Text Only | Print | Product List | Glossary Off
Versions: 1 2 3 4 5 6 7 8 9 10 11 12 13 14 15 16 17 18 19 20 21 22 23 24 25 26 27 28

000
ASUS45 KSLC 230810
RWRUT

UTAH REGIONAL WEATHER ROUNDUP
NATIONAL WEATHER SERVICE SALT LAKE CITY UT
200 AM MDT SAT JUL 23 2016

UTZ001>011-023>025-230900-

NORTHERN UTAH

CITY           SKY/WX    TMP DP  RH WIND       PRES   REMARKS
BRIGHAM CITY     N/A     72  27  18 NW5       30.10S
HILL AFB       MOCLDY    74  38  26 N3        30.12R
LOGAN          CLEAR     64  42  44 CALM      30.13R
OGDEN          CLEAR     75  38  26 N9        30.09R
PROVO AIRPORT  CLEAR     72  54  53 N3        30.09R
SALT LAKE CITY PTCLDY    72  46  39 W3        30.07R
VERNAL         CLOUDY    64  50  60 W3        30.19F
WENDOVER       CLEAR     79  28  15 N12       30.14R
HEBER CITY     CLEAR     59  46  63 CALM      30.19R

$$

UTZ012>022-026-027-230900-

SOUTHERN/CENTRAL UTAH

CITY           SKY/WX    TMP DP  RH WIND       PRES   REMARKS
BLANDING       CLOUDY    70  47  44 CALM      30.32S
BRYCE CANYON   PTCLDY    55  46  71 SW3       30.38F
CEDAR CITY     PTCLDY    74  36  25 S7        30.18S
DELTA          CLEAR     77  27  15 N10       30.08S
MILFORD        CLEAR     79  34  19 S13       30.11F
MOAB/CYNLANDS  MOCLDY    77  52  41 VRB6      30.11S
PRICE          CLEAR     63  51  65 N6        30.22F
ST GEORGE      SUNNY     91  43  18 E15       29.97R
KANAB          PTCLDY    81  48  32 SW9       30.19F

$$

REGIONAL REPORTS     COLORADO/ARIZONA

CITY           SKY/WX    TMP DP  RH WIND       PRES   REMARKS
CRAIG, CO      CLOUDY    57  46  66 E3        30.26F
GRAND JUNCTION CLEAR     71  55  56 S3        30.17F
RIFLE          CLOUDY    65  54  67 E6        30.22F
MONTROSE       CLEAR     67  49  52 E5        30.28S
CORTEZ         CLEAR     64  47  53 NE8       30.25F
PAGE, AZ       PTCLDY    81  46  29 S7        30.11F
GRAND CANYON   CLOUDY    62  55  77 CALM      30.33F
KINGMAN        MOCLDY    87  47  24 E15       30.03S
FLAGSTAFF      CLOUDY    63  50  62 S5        30.35F

$$

REGIONAL REPORTS    NEVADA/IDAHO/WYOMING

CITY           SKY/WX    TMP DP  RH WIND       PRES   REMARKS
LAS VEGAS, NV  PTCLDY    95  24   8 S7        29.83S
ELY            CLEAR     52  18  26 SE5       30.27S
ELKO           CLEAR     59  16  18 CALM      30.20R
POCATELLO, ID  CLEAR     70  31  23 SW16      30.13S
BURLEY         CLEAR     56  43  61 CALM      30.12S
EVANSTON, WY   CLOUDY    65  29  25 CALM      30.31R
ROCK SPRINGS   CLEAR     68  37  32 SW15      30.23F
KEMMERER         N/A     57  32  38 N6        30.31S

$$




USA.gov is the U.S. government's official web portal to all federal, state and local government web resources and services.